Theta_e
323 320 317 315 312 309 307 309 313 315 317 318 316 315 316 316 317 318 318 318 318 317 317 319 320 322 323 325 326 327 327 326 326 326 326 326 327 327 325 326 326 325 325 326 327 326 325 323 321 319 319 319 319 318 316 314 313 312 312 314 315 314 314
320 319 319 315 310 308 307 308 313 317 316 315 314 316 317 317 316 317 317 318 318 317 319 320 321 322 323 323 325 325 326 327 327 326 326 327 328 327 326 327 327 326 325 325 327 327 324 322 321 319 318 318 317 316 314 313 312 313 314 315 315 315 315
321 321 319 314 309 308 308 307 312 318 319 316 313 313 316 318 317 317 319 319 318 318 319 320 319 319 321 321 323 324 326 327 327 327 327 328 327 326 326 328 327 326 326 326 326 326 325 323 321 319 318 318 318 316 313 314 314 314 314 314 315 315 315
322 322 319 313 310 309 308 310 314 317 318 318 316 315 314 316 315 316 319 320 318 317 318 318 318 319 319 319 320 321 324 326 326 327 328 328 327 325 325 327 326 326 327 326 326 325 325 324 321 320 319 318 318 315 313 313 313 313 313 313 313 313 314
321 321 318 312 310 311 310 310 312 314 316 315 318 318 314 314 315 315 317 318 318 318 318 318 317 316 316 316 317 319 322 323 324 326 326 327 327 326 326 327 326 326 326 326 325 324 323 323 321 320 319 318 316 314 313 313 312 312 312 311 311 311 312
319 319 317 311 310 312 311 309 311 316 317 316 319 319 313 311 313 314 316 318 318 318 317 316 315 314 315 317 317 319 322 323 323 325 325 325 326 326 325 324 324 324 324 323 323 322 322 321 320 320 318 317 316 314 313 313 312 311 311 310 310 309 310
319 317 315 309 308 310 310 309 311 315 317 316 317 315 309 308 309 310 315 317 315 313 312 311 311 312 316 319 319 320 321 321 321 323 323 324 324 323 321 321 320 320 319 318 317 318 318 318 318 317 316 316 315 314 314 313 313 312 310 309 308 308 307
317 315 314 310 308 309 309 309 308 312 314 314 312 308 304 305 306 306 309 309 307 307 306 307 310 312 315 319 317 313 311 311 311 313 315 315 315 314 314 313 313 311 310 310 311 312 313 314 315 315 314 315 315 314 313 313 313 312 310 308 307 306 305
316 313 314 313 311 309 307 306 305 307 310 309 306 305 305 305 305 305 305 305 305 305 305 305 309 311 313 315 312 306 305 305 305 306 307 307 306 306 305 305 306 305 305 306 308 308 309 311 312 312 313 314 315 314 314 313 313 311 310 309 307 305 304
319 315 316 316 313 309 306 305 305 306 306 305 305 306 305 305 305 305 305 305 305 305 305 305 306 307 308 309 307 304 305 305 305 305 304 304 304 303 304 304 306 306 306 307 307 306 306 309 311 312 313 314 314 315 315 315 314 311 308 308 307 305 305
320 317 317 317 315 310 307 306 306 305 305 305 305 305 305 305 306 306 306 306 306 306 305 305 305 305 305 305 304 304 304 304 304 304 303 304 304 304 306 307 309 309 310 310 309 309 309 310 312 312 312 312 313 314 315 314 313 312 310 307 306 305 305
320 318 317 318 316 311 307 306 306 306 305 305 305 305 306 306 305 306 306 305 305 305 305 305 305 304 304 304 304 303 303 303 304 303 304 305 306 307 308 309 310 310 310 311 311 311 311 312 313 313 313 313 313 313 314 313 312 312 311 308 307 306 306
319 319 318 318 317 311 307 307 306 306 306 305 305 305 305 305 305 305 305 305 306 305 305 304 304 304 304 304 304 305 304 305 305 305 306 306 307 309 309 310 310 310 310 312 311 311 311 312 312 313 313 313 313 313 314 315 313 311 310 309 308 308 308
320 319 318 318 317 311 308 308 307 306 306 306 306 306 306 306 306 305 306 306 306 305 305 305 304 304 304 304 305 306 306 307 308 307 307 307 308 309 310 310 310 310 311 311 311 311 311 310 311 313 313 313 313 313 313 314 313 311 310 310 309 309 310
321 320 319 319 317 312 310 310 308 307 306 306 306 306 306 306 306 306 306 307 306 305 305 305 305 305 305 305 306 306 307 308 309 307 306 308 307 307 308 308 308 308 309 309 311 311 311 311 312 313 313 313 311 311 312 313 313 312 311 311 310 310 310
322 320 319 320 318 315 313 311 311 309 307 306 307 307 306 307 306 306 306 306 306 306 305 306 306 306 306 306 306 306 306 307 307 307 308 309 308 307 308 308 307 307 307 307 309 310 310 311 312 313 313 312 311 311 311 312 312 312 311 310 309 308 309
321 320 319 321 320 317 316 313 312 312 310 307 307 307 307 307 307 307 306 306 307 306 306 306 306 306 306 306 306 306 306 306 306 308 310 310 310 309 309 309 309 308 308 308 308 309 310 311 312 313 313 312 311 312 312 311 311 312 311 310 310 308 308
321 320 319 321 321 319 317 315 313 313 313 310 308 307 307 307 307 307 307 307 307 307 306 307 306 307 307 307 307 307 307 308 308 308 310 310 310 310 311 312 312 310 310 310 310 310 310 311 312 313 313 312 312 313 314 312 311 311 311 311 310 310 310
322 322 321 323 323 319 316 317 314 312 314 314 312 310 310 309 307 307 308 308 308 307 307 307 308 307 308 308 308 309 309 310 310 310 311 310 310 310 311 313 313 312 311 311 312 312 311 310 311 311 312 312 312 313 314 313 312 312 312 311 310 311 311
325 324 324 324 322 318 317 318 316 313 313 315 314 313 314 313 312 311 311 309 309 309 309 309 309 309 310 311 311 312 312 312 313 314 314 314 314 314 314 314 314 314 313 313 314 314 312 311 310 310 312 312 311 313 314 313 312 312 312 311 311 311 310
325 325 325 324 322 319 319 319 318 317 315 315 315 315 315 315 316 316 315 313 312 312 312 313 312 312 314 314 314 314 315 315 316 316 317 316 316 317 317 317 317 316 316 315 316 316 314 313 311 310 312 312 311 312 313 312 312 312 311 312 311 311 311
325 324 324 323 322 321 320 320 320 320 319 317 317 317 317 317 316 316 316 316 316 316 316 316 315 315 315 316 316 317 317 317 317 317 318 318 317 317 317 317 317 317 317 317 316 315 315 314 312 311 312 311 311 312 312 312 312 312 312 312 311 311 311
324 324 324 323 322 321 320 320 321 320 320 319 318 318 318 318 318 317 317 317 317 317 317 317 317 316 317 317 317 317 317 317 317 317 317 317 317 316 317 317 317 317 317 317 315 315 316 315 315 313 312 312 311 311 311 312 312 312 312 311 311 310 311
323 323 324 323 323 322 320 320 320 320 319 319 318 317 318 318 318 318 318 318 317 317 317 317 318 317 317 317 317 317 316 317 317 317 317 317 316 317 317 317 318 318 317 317 316 316 316 316 316 316 314 314 313 311 311 311 311 311 312 311 311 310 310
322 322 323 323 323 322 321 321 320 320 319 319 319 319 319 319 319 318 318 318 317 317 317 316 317 317 317 316 316 316 316 315 316 316 317 317 316 316 316 318 320 319 317 317 316 316 317 317 317 316 316 315 315 314 313 312 311 310 310 310 309 309 309
322 322 323 322 322 322 322 322 321 320 320 320 320 321 321 320 320 320 319 319 318 318 317 316 315 316 316 316 316 315 315 315 315 315 316 316 315 316 318 319 320 319 317 316 317 317 318 318 317 317 317 316 314 314 313 312 311 310 309 309 307 307 307
319 320 321 321 322 322 322 322 321 321 321 321 321 321 321 321 321 320 320 320 319 319 318 317 315 315 315 316 315 314 314 314 313 314 316 316 314 314 316 316 316 316 315 314 316 317 317 317 317 316 316 315 313 312 311 310 309 309 308 307 306 305 306
313 314 314 316 317 318 320 321 321 321 321 321 321 320 320 320 320 319 319 319 319 319 318 317 315 314 315 315 315 314 314 313 313 314 314 312 310 309 309 308 310 312 311 311 313 313 314 316 316 315 315 314 312 311 310 308 308 307 307 306 305 305 305
310 310 311 312 314 315 316 318 319 320 320 320 320 319 319 319 319 319 319 319 319 319 318 317 315 314 315 315 314 314 314 314 313 312 310 308 307 307 306 306 307 308 308 309 311 312 314 316 315 314 313 312 310 309 308 306 306 306 306 306 305 305 305
308 308 309 310 313 314 315 316 317 318 318 318 318 318 318 319 319 319 318 318 319 319 318 316 315 315 315 315 315 314 314 313 311 310 308 306 306 306 306 306 306 305 306 308 310 311 312 314 313 312 310 309 307 307 306 306 306 307 306 306 305 305 304
308 308 307 308 311 313 313 313 314 314 314 315 316 317 318 319 319 319 318 317 318 318 317 316 316 316 316 316 315 314 314 312 310 307 306 306 306 306 305 305 305 305 306 307 308 308 308 309 309 309 308 307 306 306 306 307 307 306 306 305 304 304 303
308 308 308 308 310 311 313 314 313 311 311 312 314 315 316 318 318 318 318 317 318 317 316 315 315 315 315 315 314 314 313 311 309 307 306 306 306 306 306 306 306 306 306 307 307 306 306 306 307 307 307 307 306 305 306 306 305 304 304 304 303 302 301
307 307 308 309 309 310 312 313 312 310 309 312 313 313 314 316 317 317 317 317 317 317 315 314 315 316 315 314 313 312 312 311 309 307 307 307 307 306 306 306 306 305 305 305 305 306 307 306 307 307 306 306 306 305 305 304 303 303 302 301 300 299 298
307 307 307 308 308 309 310 312 311 309 308 311 311 311 313 315 316 316 315 315 316 316 315 315 316 315 314 313 310 309 311 311 310 308 308 307 307 307 306 306 305 305 305 305 306 307 307 306 307 306 306 306 305 304 303 302 301 300 299 298 298 297 297
306 307 307 307 307 308 308 310 310 308 309 309 308 308 311 314 315 314 313 313 313 314 314 314 313 312 310 309 307 307 309 311 310 309 309 307 307 307 306 305 305 305 306 306 307 307 307 306 306 306 305 305 303 303 301 300 299 298 297 297 296 296 296
302 305 306 306 307 307 307 309 309 309 309 309 307 307 310 312 312 313 313 311 309 309 309 308 307 306 305 305 306 307 309 309 310 309 309 308 307 307 306 306 306 306 307 307 307 306 306 305 304 304 303 302 302 301 299 298 298 297 296 295 295 296 297
298 301 303 305 305 306 307 307 308 308 309 309 308 309 311 311 312 311 310 307 304 303 303 303 303 303 303 304 306 308 309 309 310 309 309 308 307 307 306 306 306 306 306 306 306 305 304 303 303 302 302 301 300 299 298 297 297 296 295 296 296 296 296
Wind_Speed
8 7 7 7 7 6 7 8 7 7 6 4 3 2 2 2 2 2 2 1 2 3 4 5 5 5 5 6 7 8 9 9 9 8 8 8 8 8 9 10 10 9 8 9 8 8 10 10 8 7 7 5 5 6 6 5 4 4 5 6 7 6 6
6 7 8 7 8 7 7 7 7 6 4 3 3 3 3 3 3 3 3 2 2 3 4 4 4 4 5 6 7 7 8 9 9 8 8 8 7 8 9 9 7 7 7 9 8 7 8 10 10 9 7 6 6 7 7 7 7 6 7 9 9 9 8
5 6 7 8 8 8 7 7 7 6 4 3 3 4 4 4 4 4 4 3 3 4 4 4 4 4 4 4 5 6 7 8 10 10 9 9 9 10 10 7 7 7 7 8 9 8 8 8 9 10 9 7 8 8 8 8 8 8 8 9 9 8 8
5 6 6 8 8 8 7 7 7 6 5 4 4 5 5 4 4 5 6 4 4 5 4 4 4 4 4 4 4 5 6 7 9 11 11 11 10 10 9 7 7 8 7 8 9 9 9 8 10 11 9 8 8 8 8 9 9 8 8 8 8 7 7
6 7 7 8 8 8 7 7 7 6 5 5 5 5 6 5 4 6 8 6 5 5 4 4 3 4 5 5 5 5 5 6 7 9 10 11 10 10 10 9 9 8 7 7 8 9 8 8 9 10 9 9 9 8 9 9 9 8 8 8 7 7 7
7 8 7 7 8 8 7 7 7 6 5 5 6 5 6 6 5 7 9 8 6 6 5 4 4 5 6 5 6 6 5 6 6 7 8 10 10 9 9 8 8 7 6 7 7 7 7 8 9 9 8 8 8 8 8 7 7 7 7 7 6 5 5
7 8 7 7 8 8 6 6 7 7 7 6 7 7 7 7 7 9 10 9 8 7 6 6 6 8 8 6 6 6 6 7 7 8 9 9 10 10 9 8 8 8 7 7 7 7 7 7 8 8 8 8 7 7 7 6 6 5 6 6 5 4 4
8 7 7 6 5 4 4 6 7 8 8 8 9 9 9 9 9 10 11 10 9 8 8 8 8 9 9 7 5 6 7 8 9 9 10 10 10 11 10 9 9 8 8 8 8 7 6 6 7 8 8 9 8 7 7 6 5 5 4 4 4 4 5
10 7 5 4 2 1 3 6 7 8 10 10 12 12 10 10 11 11 11 11 11 10 10 11 10 10 10 8 7 9 10 11 11 11 11 11 11 11 11 11 11 11 11 10 9 9 9 7 8 8 8 8 8 8 8 7 5 4 4 3 3 4 5
12 8 4 2 2 3 5 7 8 9 11 11 13 13 11 11 11 11 11 11 11 10 10 11 11 12 12 11 10 11 12 12 12 13 13 13 14 14 14 14 14 13 14 13 12 12 12 10 8 8 7 6 6 6 7 7 6 4 3 3 2 4 5
14 11 6 3 3 5 6 8 9 11 11 11 11 11 11 10 10 9 9 9 9 9 9 10 10 12 12 11 11 12 12 13 13 14 15 16 17 17 17 17 16 16 16 16 16 16 15 12 9 7 6 5 4 4 6 7 6 5 3 3 3 3 4
17 13 8 5 6 7 8 8 10 12 12 11 10 10 10 10 9 9 8 8 8 8 8 9 10 11 11 10 10 11 12 13 13 15 16 17 18 19 19 19 17 16 17 16 16 17 15 13 10 8 8 7 6 5 5 6 6 6 4 3 4 5 6
19 15 9 7 8 9 9 9 10 13 12 11 10 10 9 9 9 8 8 8 8 8 8 9 10 10 11 11 11 12 13 14 14 14 15 16 17 16 15 16 15 15 15 13 13 13 12 11 10 9 8 7 8 7 5 5 7 7 5 4 5 6 7
20 16 10 7 10 12 11 9 10 13 14 12 10 10 9 9 9 8 8 8 8 8 9 10 10 11 12 13 13 14 15 14 13 13 14 13 13 13 11 11 11 12 11 10 9 9 8 9 9 7 7 6 6 6 5 5 6 6 4 5 5 5 8
19 16 11 8 11 14 13 11 10 11 14 13 11 11 10 9 10 9 9 9 9 9 10 11 11 12 12 13 13 14 14 12 10 11 12 10 10 10 9 8 8 8 9 8 8 7 6 6 6 5 5 5 4 5 5 5 4 4 3 5 5 5 9
17 15 12 10 11 15 15 14 11 10 12 14 13 11 10 10 10 10 10 10 10 10 10 11 11 11 11 11 11 12 12 11 10 10 9 8 7 8 8 7 6 6 7 7 8 7 6 6 5 4 4 4 4 5 5 5 4 3 3 3 5 3 7
16 15 13 11 11 15 18 17 14 11 11 12 13 12 11 11 11 10 10 10 10 11 11 11 11 10 10 10 10 9 9 10 10 9 8 7 7 7 6 5 5 6 6 6 7 6 6 7 5 4 4 4 4 4 4 5 4 3 2 1 2 0 5
14 14 14 12 11 15 20 19 16 13 11 11 13 13 12 12 12 11 11 11 11 11 10 10 10 9 9 9 9 9 9 9 9 9 9 9 9 9 7 6 5 6 6 5 5 5 5 6 5 4 4 3 2 2 1 2 2 1 1 1 2 4 5
11 12 13 12 11 15 20 20 17 13 11 12 13 13 13 13 13 12 12 12 12 11 11 10 10 9 9 9 9 9 9 9 9 9 9 9 9 9 9 8 8 8 8 7 6 6 7 7 6 5 4 3 3 2 2 2 1 1 1 2 3 5 6
9 10 10 11 13 16 19 19 18 15 12 12 13 14 14 13 13 13 13 13 13 12 12 11 10 10 9 9 9 9 9 9 9 9 8 8 7 7 7 8 9 9 9 9 8 8 9 9 8 6 5 5 4 4 3 2 2 2 2 2 3 4 5
8 8 9 11 14 17 18 18 17 17 16 14 13 14 14 14 14 15 15 15 14 14 13 12 12 11 10 10 10 10 9 8 8 8 8 7 8 7 7 8 9 9 10 11 10 9 9 8 7 7 7 6 6 6 5 4 4 4 4 4 5 5 5
7 6 7 9 12 15 17 17 16 17 18 17 15 14 14 15 16 17 17 17 16 16 15 14 15 14 14 14 13 12 11 10 9 9 8 8 10 11 11 11 11 11 12 12 12 11 11 10 8 8 10 10 8 8 6 5 5 6 6 7 8 7 9
4 5 6 7 8 11 14 16 16 16 17 18 17 16 15 16 18 19 19 20 20 19 18 18 18 18 18 18 17 15 12 11 11 12 12 13 14 14 13 14 14 14 14 14 14 14 14 14 13 13 14 14 11 9 8 6 6 7 7 8 9 8 9
3 5 6 7 7 9 10 12 14 15 16 16 17 17 17 18 20 20 20 22 23 24 23 22 20 20 21 21 21 18 14 11 11 12 14 15 15 15 15 14 14 15 16 17 16 16 16 17 18 17 17 16 14 12 9 7 7 8 8 9 8 8 8
4 5 7 8 8 9 10 11 13 14 16 16 17 17 19 20 21 21 21 23 24 25 27 26 24 22 23 24 24 22 18 15 13 13 14 15 16 16 14 11 10 13 16 16 16 17 17 17 18 18 17 17 15 13 11 11 10 9 10 10 9 9 9
5 6 7 8 9 9 10 12 14 15 15 16 16 17 18 19 20 21 21 22 23 24 26 29 30 28 25 24 25 24 21 19 17 16 16 17 18 16 11 8 9 11 14 14 14 16 17 16 16 16 18 18 16 13 14 15 14 13 13 11 9 8 9
3 5 7 9 10 10 11 12 13 14 15 15 16 16 17 18 19 21 22 22 22 23 25 27 30 30 28 26 26 24 22 21 20 18 16 17 16 14 12 11 10 9 11 13 13 14 15 14 13 14 16 17 15 14 15 15 15 15 15 13 12 11 13
3 4 5 7 9 10 12 13 14 14 13 13 14 16 17 17 18 19 20 20 19 21 22 23 25 28 28 27 28 27 25 22 19 16 16 16 14 13 12 12 10 10 11 12 11 12 13 12 12 12 14 15 14 15 15 15 14 15 15 15 15 15 17
5 5 5 6 7 8 10 12 13 14 14 14 15 18 19 19 19 18 17 17 17 18 20 20 21 23 24 25 26 25 22 19 16 15 15 14 13 12 11 10 10 11 11 10 9 10 11 10 10 10 11 12 13 13 14 14 15 16 17 17 17 18 21
9 8 8 7 7 7 8 9 10 12 13 13 14 16 17 19 20 19 18 17 16 17 18 17 18 19 20 22 22 20 16 15 16 15 14 13 13 12 11 10 9 9 8 8 8 8 8 8 8 8 9 10 12 13 14 15 16 18 18 19 20 21 22
10 11 11 9 9 9 9 9 10 10 11 11 10 11 13 15 18 19 19 18 17 17 17 17 18 19 19 19 17 15 13 13 14 15 14 13 12 11 10 9 9 8 8 8 8 7 7 7 7 8 10 11 12 14 16 17 18 19 20 21 22 22 21
10 11 11 11 11 11 11 11 11 11 11 10 10 10 10 11 14 16 17 18 17 16 16 16 17 18 18 17 15 13 12 12 14 13 13 12 11 11 10 9 9 9 8 8 8 7 8 8 9 10 10 9 9 11 15 17 17 19 20 20 21 21 21
12 12 12 13 14 14 13 12 12 13 11 10 10 10 10 10 12 14 15 15 15 15 16 17 19 19 18 16 14 12 11 11 12 12 12 12 11 11 11 10 9 8 7 7 7 7 8 9 10 11 10 8 8 10 14 17 16 16 18 18 19 21 21
17 16 15 16 16 16 15 14 14 14 13 12 12 12 12 13 13 14 14 13 14 16 18 20 20 19 17 16 15 14 12 12 12 12 12 11 11 10 10 9 7 7 6 7 7 8 9 10 11 12 11 10 11 12 14 16 15 15 17 18 18 19 18
22 21 19 18 17 17 17 17 17 16 14 14 15 14 13 14 15 15 14 14 15 16 18 19 18 17 17 16 15 14 13 13 13 13 12 12 11 9 8 7 7 7 7 7 8 9 9 10 10 11 11 11 12 13 13 14 15 15 15 15 15 15 14
24 25 25 23 21 19 18 19 19 18 16 16 16 16 17 19 19 18 17 17 17 17 18 18 17 16 16 15 15 15 14 13 13 12 11 11 9 8 8 7 7 8 7 7 8 8 8 9 9 10 10 11 11 12 12 13 14 14 14 14 13 12 12
27 27 27 26 24 22 21 22 21 20 19 19 18 18 20 21 21 22 22 21 20 19 19 18 17 17 16 15 15 14 13 13 13 12 11 10 9 9 8 7 7 7 7 7 7 7 8 8 9 9 10 10 11 11 11 11 11 12 12 11 10 10 11
Wind_Direction
138 117 100 92 92 86 78 87 96 99 108 120 124 120 111 130 141 114 108 148 193 206 214 215 220 225 218 210 206 196 202 213 206 207 216 210 208 208 208 211 216 220 203 184 180 169 155 146 137 124 115 117 115 110 97 83 67 60 72 71 61 56 55
131 105 95 92 88 85 77 83 99 107 114 128 135 143 144 144 142 128 128 145 165 181 190 190 194 201 201 206 208 200 198 196 192 203 210 199 198 199 193 193 198 204 198 182 177 177 163 151 143 133 127 122 110 101 87 78 73 71 78 80 74 67 61
124 107 99 97 94 93 87 86 100 113 119 124 129 139 143 137 141 137 132 142 160 176 177 169 180 185 177 183 189 190 190 184 183 188 190 188 194 193 182 181 185 177 174 177 177 177 172 158 146 142 142 133 116 102 90 83 80 77 74 74 75 71 65
128 116 101 98 101 103 99 99 111 124 130 136 132 134 141 143 149 146 138 142 154 164 169 169 180 178 175 189 187 181 182 184 184 180 178 181 185 184 174 172 180 174 174 180 180 182 180 166 152 146 145 137 122 112 108 101 92 85 76 69 65 60 57
145 128 110 104 110 113 111 110 116 124 127 132 132 137 149 150 147 146 143 143 148 155 164 168 170 167 170 178 177 175 173 176 181 178 179 179 173 174 175 173 176 177 179 181 180 184 180 168 159 152 146 139 127 121 120 110 98 89 79 71 62 54 48
160 141 129 118 118 121 120 117 118 127 132 134 136 140 146 144 139 144 145 145 150 158 164 163 162 160 153 150 156 155 149 153 157 161 170 170 163 165 165 159 158 158 155 155 158 163 161 157 158 155 150 144 137 135 132 121 108 94 81 73 65 57 48
175 154 141 129 125 124 125 126 127 136 141 142 148 147 141 138 141 148 148 151 158 162 161 155 154 154 141 128 139 138 132 138 139 143 151 151 151 153 147 142 146 149 148 146 141 137 145 153 160 161 154 148 146 145 144 141 128 105 87 73 59 43 16
187 162 138 132 137 138 144 145 139 141 144 146 153 150 136 130 135 141 144 147 149 144 141 136 132 143 139 124 129 136 133 133 132 136 139 140 145 148 147 145 146 148 148 145 136 133 143 154 161 166 162 155 152 150 147 141 130 113 99 76 49 28 357
197 176 146 144 167 185 164 154 145 142 143 147 154 148 134 130 131 134 136 136 136 131 130 128 124 134 139 132 136 140 136 132 131 134 135 138 142 142 143 140 138 142 142 138 137 142 146 147 151 159 161 160 156 152 152 144 128 116 108 86 33 13 1
207 198 185 188 211 201 168 152 143 139 137 144 154 150 141 138 135 136 136 135 134 131 131 129 128 134 137 138 144 145 142 139 137 138 138 140 140 137 137 136 133 134 131 128 129 133 135 134 140 150 157 166 162 155 158 148 128 117 114 107 67 15 11
215 212 216 238 239 212 178 152 138 135 133 141 153 154 151 148 145 143 141 140 138 136 137 135 135 136 136 139 145 145 144 142 140 140 140 140 138 136 136 134 130 128 125 122 120 119 119 118 120 129 136 145 147 146 153 145 130 123 111 108 109 67 34
219 216 223 253 249 213 182 158 140 132 131 137 149 155 155 153 153 152 149 149 145 141 142 140 138 136 132 133 136 139 139 136 136 138 138 137 136 136 136 133 130 128 124 119 117 116 114 111 109 109 110 115 119 118 130 141 137 129 124 116 100 80 63
221 219 229 253 240 208 185 169 151 135 131 136 144 150 152 154 155 154 153 154 148 142 140 138 136 133 130 128 128 132 131 127 127 129 130 132 132 132 132 130 129 127 121 117 117 117 116 117 115 109 104 106 110 108 106 123 129 124 120 108 80 61 50
221 221 233 242 221 202 188 177 163 146 140 142 144 146 148 149 150 149 148 148 146 143 140 138 137 134 133 132 131 131 127 121 122 123 123 126 127 128 128 127 128 126 123 121 118 113 115 119 115 110 106 98 101 106 100 109 124 121 91 63 66 47 30
221 223 229 227 214 208 199 188 179 163 153 151 151 151 152 150 149 149 147 148 147 146 145 145 144 141 141 140 137 134 129 126 128 127 123 123 125 129 131 132 135 135 134 132 126 126 129 121 114 113 112 105 106 110 106 110 123 124 83 38 39 29 19
222 224 225 222 220 218 211 198 193 185 169 162 160 160 161 159 156 155 153 153 154 155 156 156 153 150 149 148 146 144 140 139 140 134 127 126 129 132 133 136 144 146 147 143 141 151 151 136 134 133 124 124 126 119 115 117 113 121 120 45 39 26 355
222 223 224 227 228 227 221 209 200 198 188 178 172 170 173 171 166 165 164 164 166 168 168 166 163 161 160 158 156 156 154 154 154 150 145 148 153 150 144 147 151 149 150 150 149 157 156 147 147 139 127 125 128 128 119 116 112 114 139 86 52 288 320
223 227 233 239 236 230 226 218 206 201 203 199 186 178 180 180 176 176 176 178 181 181 180 179 177 174 173 170 168 168 169 170 171 169 170 172 173 170 165 169 182 177 167 159 156 162 165 160 158 155 143 134 140 152 92 91 112 104 142 195 283 298 307
226 232 236 234 228 226 225 222 214 207 210 212 203 191 186 185 185 185 184 187 191 192 192 191 189 188 187 185 183 183 184 184 185 186 189 189 188 189 188 189 198 200 191 186 187 188 186 178 175 181 177 169 192 253 318 338 317 315 288 234 274 299 302
222 227 228 221 216 220 223 222 219 216 217 218 216 208 199 193 191 190 193 199 201 201 201 200 199 197 194 193 196 197 198 199 199 197 199 205 208 211 216 216 218 221 218 217 219 213 203 191 182 193 208 206 222 258 284 290 290 296 289 274 278 286 292
220 217 219 216 213 217 222 223 223 224 226 224 222 220 218 215 208 203 205 209 211 210 208 207 208 207 203 204 205 207 210 212 214 216 217 226 233 235 243 247 247 249 249 246 245 240 232 217 198 208 233 237 243 258 261 256 271 282 285 287 290 290 294
226 215 211 212 215 219 226 229 229 229 230 229 230 234 234 232 229 225 223 222 222 220 218 217 219 218 217 216 214 215 220 223 227 233 237 244 251 250 250 252 254 256 260 258 246 236 239 238 220 219 235 240 247 259 259 252 262 275 283 288 288 285 291
229 218 211 209 213 218 225 229 229 228 227 229 234 237 234 231 232 233 233 233 232 230 230 230 231 230 229 227 223 220 223 231 237 244 250 251 252 252 249 249 253 256 258 258 246 233 236 242 237 234 239 244 248 251 248 249 257 265 276 285 285 283 290
227 220 211 211 214 218 222 223 223 223 223 226 231 233 232 231 233 234 234 237 238 236 235 236 239 242 239 233 229 224 225 238 249 253 254 253 250 248 247 248 253 257 254 251 248 243 244 248 247 245 247 252 255 252 250 255 259 267 281 285 281 284 290
222 223 219 219 220 222 225 226 226 227 228 229 233 235 234 233 235 237 238 241 243 242 239 239 241 243 242 238 234 230 234 246 258 260 257 254 251 249 248 242 243 255 256 250 250 253 254 255 252 250 250 252 253 254 257 258 254 264 282 284 281 286 286
229 230 232 234 232 230 230 230 231 233 234 234 235 236 236 235 235 238 240 242 243 242 242 242 241 240 241 242 238 236 243 251 258 262 260 254 250 247 245 238 237 256 264 258 257 261 263 263 258 251 247 245 242 243 250 254 254 260 273 278 279 280 274
259 247 243 243 241 238 236 235 236 238 239 240 238 237 238 237 237 238 240 241 242 241 242 243 242 239 239 243 244 244 248 249 252 258 254 248 247 241 236 237 235 245 259 259 259 264 268 270 264 251 243 239 238 240 245 252 259 265 274 278 276 273 277
280 280 272 261 253 248 244 243 245 246 244 241 239 240 239 239 239 239 239 240 238 239 242 242 239 238 238 243 245 243 244 245 246 248 245 242 244 239 234 233 226 230 247 253 251 253 258 265 262 247 237 235 237 243 248 255 265 273 280 282 279 281 289
264 278 281 275 269 261 253 247 247 247 244 241 243 245 244 242 240 236 234 234 231 234 239 237 233 234 236 237 236 235 240 243 233 229 234 237 237 233 229 226 221 225 237 241 240 243 245 247 243 230 225 230 237 243 251 262 272 279 282 284 285 290 296
271 273 273 272 268 262 256 251 246 243 243 244 246 248 246 241 237 234 231 229 226 227 229 224 220 222 223 222 224 226 232 228 214 215 226 228 226 226 222 219 221 226 232 233 232 233 232 229 223 214 215 226 237 247 257 266 275 280 283 286 289 293 297
275 273 272 269 262 258 255 252 248 245 243 244 245 248 246 237 232 231 229 226 222 222 222 218 215 214 210 206 206 205 204 203 204 211 217 217 217 219 215 214 218 220 220 220 217 219 218 208 202 210 221 232 243 255 263 268 275 280 284 288 291 293 295
270 267 265 261 254 252 252 249 247 245 241 240 243 247 245 234 226 224 223 221 219 216 212 208 202 194 190 190 191 186 183 192 200 203 203 204 206 206 205 206 207 205 205 208 210 215 211 195 194 213 229 238 245 255 264 273 283 288 291 294 295 296 298
265 257 255 254 248 244 246 245 246 245 238 232 235 237 233 226 221 221 218 213 207 200 193 189 186 182 184 192 195 186 177 182 188 188 189 195 197 196 197 198 199 202 205 211 211 208 205 200 205 218 227 229 233 249 269 281 287 289 291 295 297 300 303
265 257 253 251 247 243 241 238 242 246 239 227 226 226 224 221 220 222 216 198 186 188 188 186 187 188 190 195 196 187 176 175 178 179 182 185 186 190 195 197 204 213 214 213 210 206 210 215 222 229 234 238 245 260 278 286 288 290 294 299 301 303 305
265 262 258 255 253 250 244 238 239 243 239 230 226 221 217 214 212 215 214 200 190 191 191 191 193 194 192 194 194 188 182 181 180 175 173 174 177 192 206 209 215 218 212 209 210 213 220 229 238 246 250 255 263 272 280 286 292 299 301 301 301 301 300
264 263 263 261 258 256 251 243 239 239 236 231 225 219 217 216 211 209 209 205 198 194 190 190 192 192 189 190 192 191 192 191 185 175 170 175 188 209 220 217 216 216 214 216 220 228 240 247 253 255 256 261 269 275 282 289 296 300 301 300 299 299 297
263 262 262 263 262 259 254 248 242 237 233 229 225 220 216 212 206 206 206 200 192 187 185 183 182 181 183 185 187 191 195 194 189 182 180 192 210 221 218 215 217 219 221 226 232 242 253 255 255 254 257 264 272 280 290 297 298 299 302 302 300 299 297